Content
SEND FEEDBACK

Daily
Averages
Monthly
Summary
United States of America

MURPHY, IDAHO


Home > North America > United States > Idaho
Elevation: 4002 feet     Latitude: 43 12N     Longitude: 116 45W

WEATHER
 
SELECT A DAY
Number of Records: 157,152;   Date Range: 5/14/10 - 9/30/14
 
SHARE

PRINT THIS DATA

[ ← Previous Day ]
WEATHER ALMANAC - JANUARY 31, 2013
[ Next Day → ]
[ °C ]   °F
Weather ElementAverageHighLow
Temperature35.2 °F46.4 °F (3:55 pm)28.4 °F (12:55 am)
Dewpoint34.1 °F41 °F (12:55 pm)28.4 °F (12:55 am)
Humidity96.3 %100 % (12:35 am)71 % (4:15 pm)
Barometer30.32 in30.36 in (9:35 am)30.27 in (9:15 pm)
Wind Speed1.1 mph8.1 mph (2:35 pm)
Weather ElementAverage
Visibility8.9 mi
Wind DirectionNNE (23.2 °)

Weather ElementTotal
Precipitation---
Heating Degree Days27.6 (Base 65)
Averaged from 66 records on January 31, 2013
WEATHER CONDITIONS BREAKOUT
WIND DIRECTION BREAKOUT
WEATHER BY HOUR - JANUARY 31, 2013
[ °C ]   °F
Local TimeTemperatureDewpointHumidityBarometerVisibilityWind DirectionWind SpeedGust SpeedPrecipitationEventsConditions
12:35 AM30.2 °F30.2 °F100 %30.33 in7.0 miCalmClear
12:55 AM28.4 °F28.4 °F100 %30.33 in6.0 miCalmClear
1:15 AM28.4 °F28.4 °F100 %30.33 in5.0 miCalmClear
1:35 AM28.4 °F28.4 °F100 %30.34 in5.0 miEast (80°)3.5 mphClear
1:55 AM28.4 °F28.4 °F100 %30.34 in5.0 miCalmClear
2:15 AM28.4 °F28.4 °F100 %30.34 in9.0 miCalmClear
2:35 AM28.4 °F28.4 °F100 %30.34 in9.0 miCalmPartly Cloudy
2:55 AM28.4 °F28.4 °F100 %30.35 in9.0 miCalmMostly Cloudy
3:15 AM28.4 °F28.4 °F100 %30.35 in5.0 miCalmOvercast
3:35 AM30.2 °F30.2 °F100 %30.34 in7.0 miEast (80°)3.5 mphOvercast
3:55 AM28.4 °F28.4 °F100 %30.33 in7.0 miSE (140°)3.5 mphOvercast
4:15 AM30.2 °F30.2 °F100 %30.34 in8.0 miCalmOvercast
4:55 AM32.0 °F32.0 °F100 %30.34 in9.0 miEast (100°)3.5 mphOvercast
5:35 AM32.0 °F32.0 °F100 %30.34 in8.0 miEast (90°)4.6 mphOvercast
5:55 AM32.0 °F32.0 °F100 %30.33 in10.0 miEast (90°)3.5 mphOvercast
6:15 AM32.0 °F32.0 °F100 %30.34 in10.0 miCalmOvercast
6:35 AM32.0 °F32.0 °F100 %30.34 in8.0 miCalmOvercast
6:55 AM32.0 °F32.0 °F100 %30.34 in8.0 miCalmOvercast
7:15 AM32.0 °F32.0 °F100 %30.34 in10.0 miSE (140°)3.5 mphOvercast
7:35 AM32.0 °F32.0 °F100 %30.34 in10.0 miEast (100°)3.5 mphOvercast
7:55 AM32.0 °F32.0 °F100 %30.35 in10.0 miCalmOvercast
8:15 AM32.0 °F32.0 °F100 %30.35 in10.0 miESE (120°)3.5 mphOvercast
8:35 AM32.0 °F32.0 °F100 %30.34 in10.0 miCalmOvercast
8:55 AM32.0 °F32.0 °F100 %30.35 in9.0 miSouth (180°)3.5 mphOvercast
9:15 AM33.8 °F33.8 °F100 %30.35 in10.0 miCalmOvercast
9:35 AM33.8 °F33.8 °F100 %30.36 in10.0 miCalmOvercast
9:55 AM33.8 °F33.8 °F100 %30.35 in10.0 miCalmOvercast
10:15 AM35.6 °F35.6 °F100 %30.36 in10.0 miCalmOvercast
10:35 AM37.4 °F37.4 °F100 %30.36 in10.0 miCalmOvercast
10:55 AM37.4 °F37.4 °F100 %30.36 in10.0 miCalmOvercast
11:15 AM37.4 °F37.4 °F100 %30.36 in10.0 miCalmOvercast
11:35 AM39.2 °F39.2 °F100 %30.36 in10.0 miCalmOvercast
11:55 AM39.2 °F39.2 °F100 %30.35 in10.0 miCalmOvercast
12:15 PM39.2 °F39.2 °F100 %30.34 in10.0 miCalmOvercast
12:55 PM41.0 °F41.0 °F100 %30.33 in10.0 miCalmOvercast
1:15 PM41.0 °F41.0 °F100 %30.33 in10.0 miCalmOvercast
1:35 PM42.8 °F39.2 °F87 %30.32 in10.0 miCalmOvercast
1:55 PM44.6 °F41.0 °F87 %30.32 in10.0 miCalmOvercast
2:15 PM44.6 °F41.0 °F87 %30.31 in10.0 miNE (40°)4.6 mphOvercast
2:35 PM44.6 °F39.2 °F81 %30.30 in10.0 miNE (40°)8.1 mphMostly Cloudy
2:55 PM44.6 °F39.2 °F81 %30.30 in10.0 miNE (40°)8.1 mphPartly Cloudy
3:15 PM44.6 °F39.2 °F81 %30.29 in10.0 miNE (50°)6.9 mphClear
3:55 PM46.4 °F39.2 °F76 %30.29 in10.0 miCalmClear
4:15 PM46.4 °F37.4 °F71 %30.28 in10.0 miCalmClear
4:35 PM46.4 °F39.2 °F76 %30.28 in10.0 miCalmClear
4:55 PM44.6 °F39.2 °F81 %30.28 in10.0 miCalmClear
5:15 PM44.6 °F37.4 °F76 %30.28 in10.0 miCalmClear
5:35 PM44.6 °F39.2 °F81 %30.28 in10.0 miCalmClear
5:55 PM41.0 °F39.2 °F93 %30.28 in10.0 miCalmClear
6:15 PM39.2 °F39.2 °F100 %30.28 in10.0 miCalmScattered Clouds
6:35 PM39.2 °F39.2 °F100 %30.28 in10.0 miCalmOvercast
6:55 PM35.6 °F35.6 °F100 %30.28 in10.0 miCalmMostly Cloudy
7:15 PM35.6 °F35.6 °F100 %30.28 in10.0 miCalmScattered Clouds
7:55 PM32.0 °F32.0 °F100 %30.28 in9.0 miCalmMostly Cloudy
8:15 PM32.0 °F32.0 °F100 %30.28 in9.0 miCalmMostly Cloudy
8:35 PM32.0 °F32.0 °F100 %30.28 in7.0 miCalmMostly Cloudy
8:55 PM32.0 °F32.0 °F100 %30.28 in8.0 miCalmScattered Clouds
9:15 PM32.0 °F32.0 °F100 %30.27 in7.0 miCalmMostly Cloudy
9:35 PM32.0 °F32.0 °F100 %30.27 in7.0 miCalmMostly Cloudy
9:55 PM32.0 °F32.0 °F100 %30.27 in8.0 miCalmMostly Cloudy
10:15 PM32.0 °F32.0 °F100 %30.28 in8.0 miCalmMostly Cloudy
10:35 PM32.0 °F32.0 °F100 %30.27 in10.0 miCalmScattered Clouds
10:55 PM32.0 °F32.0 °F100 %30.28 in5.0 miCalmPartly Cloudy
11:15 PM32.0 °F32.0 °F100 %30.28 in10.0 miNE (50°)3.5 mphMostly Cloudy
11:35 PM32.0 °F32.0 °F100 %30.28 in8.0 miCalmOvercast
11:55 PM30.2 °F30.2 °F100 %30.27 in5.0 miSouth (190°)3.5 mphMostly Cloudy
Hourly data recorded from KMAN, located miles away from Murphy, Idaho







STORIES FROM OUR PARTNERS